MPEC 2002-P32 : 2002 PD11

The following Minor Planet Electronic Circular may be linked-to from your own Web pages, but must not otherwise be redistributed electronically.


Read MPEC 2002-P31 Read MPEC 2002-P33


M.P.E.C. 2002-P32                                Issued 2002 Aug. 8, 03:08 UT

     The Minor Planet Electronic Circulars contain information on unusual
         minor planets and routine data on comets.  They are published
   on behalf of Commission 20 of the International Astronomical Union by the
          Minor Planet Center, Smithsonian Astrophysical Observatory,
                          Cambridge, MA 02138, U.S.A.

             Prepared using the Tamkin Foundation Computer Network

                              MPC@CFA.HARVARD.EDU
          URL http://cfa-www.harvard.edu/iau/mpc.html  ISSN 1523-6714

                                   2002 PD11

Observations:
     K02P11D* C2002 08 05.38078 21 03 59.26 -04 38 16.1          18.7        644
     K02P11D  C2002 08 05.39144 21 03 56.12 -04 38 05.4          18.9        644
     K02P11D  C2002 08 05.40338 21 03 52.60 -04 37 53.6          18.9        644
     K02P11D  C2002 08 05.87007 21 01 36.73 -04 30 03.5                      557
     K02P11D  C2002 08 05.87123 21 01 36.41 -04 30 02.5                      557
     K02P11D  C2002 08 05.87472 21 01 35.32 -04 29 59.4                      557
     K02P11D  C2002 08 05.87589 21 01 35.01 -04 29 58.1          19.2 V      557
     K02P11D  C2002 08 05.87755 21 01 34.47 -04 29 56.6                      246
     K02P11D  C2002 08 05.87836 21 01 34.25 -04 29 55.5                      246
     K02P11D  C2002 08 05.87894 21 01 34.08 -04 29 54.6                      246
     K02P11D  C2002 08 05.87999 21 01 33.76 -04 29 53.3                      246
     K02P11D  C2002 08 05.88292 21 01 32.89 -04 29 50.3                      246
     K02P11D  C2002 08 05.88441 21 01 32.42 -04 29 49.3                      246
     K02P11D  C2002 08 05.88525 21 01 32.13 -04 29 48.0                      246
     K02P11D  C2002 08 05.88648 21 01 31.76 -04 29 46.4                      246
     K02P11D  C2002 08 07.30699 20 54 01.54 -04 04 08.4          19.4 R      918
     K02P11D  C2002 08 07.31046 20 54 00.56 -04 04 03.5                      918
     K02P11D  C2002 08 07.31343 20 53 59.56 -04 04 00.1                      918
     K02P11D  C2002 08 07.31825 20 53 57.90 -04 03 55.1                      918
     K02P11D 4C2002 08 07.32602 20 53 55.51 -04 03 42.4                      673
     K02P11D 4C2002 08 07.32929 20 53 54.39 -04 03 38.5                      673
     K02P11D 4C2002 08 07.33089 20 53 53.84 -04 03 37.2                      673

Observer details:
246 Klet Observatory-KLENOT.  Observer M. Tichy.  1.06-m KLENOT telescope + CCD.
557 Ondrejov.  Observer L. Sarounova.  0.65-m f/3.6 reflector + CCD.
644 Palomar Mountain/NEAT.  Observers E. F. Helin, S. Pravdo, K. Lawrence,
    K. Kuluhiwa, M. Hicks, R. Thicksten.  1.2-m Schmidt + CCD.
673 Table Mountain Observatory, Wrightwood.  Observer M. Hicks.  0.6-m
    reflector + CCD.
918 Badlands Observatory, Quinn.  Observer R. Dyvig.  0.66-m f/4.8 reflector
    + CCD.

Orbital elements:
2002 PD11
Epoch 2002 July 25.0 TT = JDT 2452480.5                 MPC
M 335.10417              (2000.0)            P               Q
n   0.32020697     Peri.  149.18034     +0.03917825     -0.98432963
a   2.1159994      Node   298.07736     +0.87247777     +0.11757121
e   0.8534348      Incl.   11.23677     +0.48708071     -0.13142370
P   3.08           H   19.8           G   0.15
From 21 observations 2002 Aug. 5-7.

Ephemeris:
2002 PD11                a,e,i = 2.12, 0.85, 11                  q = 0.3101
Date    TT    R. A. (2000) Decl.     Delta      r     Elong.  Phase     V
2002 07 25    21 40.60   -06 59.6    0.549    1.533   155.9    15.7    20.3
2002 07 26    21 38.48   -06 49.8    0.532    1.520   157.2    15.0    20.2
2002 07 27    21 36.20   -06 39.8    0.516    1.507   158.5    14.3    20.1
2002 07 28    21 33.74   -06 29.3    0.499    1.494   159.7    13.6    19.9
2002 07 29    21 31.10   -06 18.3    0.483    1.480   161.0    12.9    19.8
2002 07 30    21 28.24   -06 06.9    0.467    1.467   162.2    12.2    19.7
2002 07 31    21 25.17   -05 54.9    0.451    1.453   163.4    11.5    19.6
2002 08 01    21 21.86   -05 42.3    0.435    1.439   164.5    10.9    19.5
2002 08 02    21 18.29   -05 29.0    0.420    1.425   165.6    10.2    19.3
2002 08 03    21 14.44   -05 15.0    0.405    1.412   166.4     9.7    19.2
2002 08 04    21 10.28   -05 00.1    0.390    1.398   167.1     9.3    19.1
2002 08 05    21 05.80   -04 44.3    0.375    1.383   167.6     9.1    19.0
2002 08 06    21 00.96   -04 27.5    0.361    1.369   167.6     9.1    18.9
2002 08 07    20 55.73   -04 09.6    0.347    1.355   167.3     9.5    18.8
2002 08 08    20 50.07   -03 50.4    0.334    1.341   166.6    10.1    18.7
2002 08 09    20 43.96   -03 29.8    0.320    1.326   165.4    11.1    18.6
2002 08 10    20 37.34   -03 07.7    0.307    1.312   163.9    12.4    18.6
2002 08 11    20 30.18   -02 43.9    0.295    1.297   162.0    14.0    18.5
2002 08 12    20 22.43   -02 18.3    0.283    1.282   159.7    15.9    18.5
2002 08 13    20 14.04   -01 50.6    0.271    1.268   157.2    18.0    18.4
2002 08 14    20 04.97   -01 20.8    0.260    1.253   154.5    20.4    18.4
2002 08 15    19 55.15   -00 48.7    0.249    1.238   151.4    23.1    18.3
2002 08 16    19 44.55   -00 14.1    0.239    1.223   148.1    26.0    18.3
2002 08 17    19 33.12   +00 22.9    0.230    1.207   144.5    29.1    18.3
2002 08 18    19 20.82   +01 02.5    0.222    1.192   140.7    32.6    18.3
2002 08 19    19 07.64   +01 44.4    0.214    1.176   136.6    36.2    18.3
2002 08 20    18 53.57   +02 28.7    0.207    1.161   132.3    40.2    18.3
2002 08 21    18 38.64   +03 14.8    0.200    1.145   127.7    44.3    18.3
2002 08 22    18 22.88   +04 02.3    0.195    1.129   122.9    48.7    18.3
2002 08 23    18 06.40   +04 50.6    0.191    1.114   117.9    53.4    18.4
2002 08 24    17 49.30   +05 38.9    0.188    1.098   112.8    58.1    18.5
2002 08 25    17 31.74   +06 26.3    0.186    1.081   107.5    63.0    18.6
2002 08 26    17 13.89   +07 12.0    0.185    1.065   102.2    68.0    18.7
2002 08 27    16 55.96   +07 55.1    0.185    1.049    96.9    73.0    18.8
2002 08 28    16 38.13   +08 34.9    0.186    1.032    91.6    78.0    18.9
2002 08 29    16 20.60   +09 11.0    0.188    1.016    86.4    82.9    19.1
2002 08 30    16 03.53   +09 42.9    0.192    0.999    81.3    87.7    19.3
2002 08 31    15 47.06   +10 10.6    0.196    0.982    76.4    92.4    19.5
2002 09 01    15 31.30   +10 34.1    0.201    0.965    71.7    96.9    19.7
2002 09 02    15 16.31   +10 53.8    0.207    0.948    67.2   101.2    20.0
2002 09 03    15 02.13   +11 09.7    0.214    0.931    62.8   105.4    20.2
2002 09 04    14 48.76   +11 22.5    0.221    0.913    58.7   109.3    20.5
2002 09 05    14 36.20   +11 32.3    0.230    0.896    54.8   113.1    20.7
2002 09 06    14 24.42   +11 39.6    0.238    0.878    51.1   116.7    21.0
2002 09 07    14 13.38   +11 44.7    0.248    0.861    47.6   120.1    21.3
2002 09 08    14 03.03   +11 48.0    0.257    0.843    44.3   123.4    21.6
2002 09 09    13 53.34   +11 49.6    0.268    0.825    41.1   126.6    21.9
2002 09 10    13 44.24   +11 49.8    0.278    0.806    38.1   129.6    22.2
2002 09 11    13 35.70   +11 48.8    0.290    0.788    35.2   132.5    22.6
2002 09 12    13 27.67   +11 46.6    0.301    0.770    32.5   135.4    22.9
2002 09 13    13 20.10   +11 43.5    0.313    0.751    29.9   138.1    23.3

Timothy B. Spahr             (C) Copyright 2002 MPC           M.P.E.C. 2002-P32

Read MPEC 2002-P31 Read MPEC 2002-P33


Our Web policy. Index to the CBAT/MPC/ICQ pages.

MPC